Погода в Рок Саунд

Багамские острова     24°48′59″N   76°10′13″W
темп.,
°C
ветер,
м/с
пор.,
м/с
влажн.,
%
обл.,
%
осадки,
мм/ч
давл.,
гПа
погр.,
м
28 июля, ср
ср2823:00+29юв447496 0.0 1018693
02:00+28ююв347438 0.0 1017738
05:00+28юв347386 0.0 1016731
08:00+28вюв227595 0.1 1017581
11:00+28в237581 0.5 1018542
14:00+29вюв44735 1.4 1018729
17:00+29юв44747 0.1 1016799
20:00+29вюв557522 0.1 1016810
29 июля, чт
чт2923:00+28вюв567423 0.0 1017894
02:00+28юв66724 0.0 1016996
05:00+28юв66714 0.0 1015986
08:00+29юв666919 0.0 10171180
11:00+29юв656836 0.1 10181207
14:00+29вюв447315 0.1 1017829
17:00+29вюв447314 1.8 1017825
20:00+29вюв567239 1.8 1017945
30 июля, пт
пт3023:00+29юв777585 0.1 1018941
02:00+29юв777112 0.1 10171103
05:00+29юв66705 0.1 10171049
08:00+28юв666921 0.1 10181017
11:00+28юв6669100 0.0 10191028
14:00+29юв5567100 0.0 1019988
17:00+29юв556995 0.1 10181001
20:00+29вюв55675 0.1 1018919
31 июля, сб
сб3123:00+29вюв567411 0.0 1019920
02:00+28юв56717 0.2 1018926
05:00+28вюв447399 0.0 1018872
08:00+28вюв457473 0.0 1019854
11:00+28юв457481 0.0 1020848
14:00+29юв4472100 0.1 1019819
17:00+29вюв44725 0.1 1018891
20:00+29вюв55725 0.1 1019827
1 августа, вс
вс123:00+29вюв67766 0.0 1019874
02:00+29юв677722 0.1 1018919
05:00+28юв66778 1.0 1018760
08:00+29юв5672100 1.7 1020872
11:00+29юв667884 0.1 1020799
14:00+29юв5675100 0.1 1019787
17:00+29юв6673100 0.1 1018805
20:00+29юв5672100 0.1 1019863